Location: Schommer Observatory
(40.5200°N, 74.4500°W)
Time: 16:04:31
(UTC-05:00)

OTV 5 (USA 277) - Pass Details

Date: 11 November 2017
Orbit: 404 x 417 km, 43.0° (Epoch: 07 September)

Event Time Altitude Azimuth Distance (km) Brightness Sun altitude
Exits shadow 04:33:31 37° 96° (E) 646 ? -24.1°
Drops below altitude 10° 04:35:44 10° 78° (ENE) 1,456 ? -23.7°
Sets 04:37:51 0° 74° (ENE) 2,317 ? -23.3°
